Regional Weather Roundup
Issued by NWS Charleston, SC

Current Version | Previous Version | Graphics & Text | Print | Product List | Glossary On
Versions: 1 2 3 4 5 6 7 8 9 10 11 12 13 14 15 16 17 18 19 20 21 22 23 24 25 26 27 28 29 30 31 32 33 34 35 36 37 38 39 40 41 42 43 44 45 46 47 48 49 50
000 ASUS42 KCHS 211525 RWRCHS REGIONAL WEATHER ROUNDUP NATIONAL WEATHER SERVICE CHARLESTON SC 1100 AM EDT SUN SEP 21 2014 NOTE: "FAIR" INDICATES FEW OR NO CLOUDS BELOW 12,000 FEET WITH NO SIGNIFICANT WEATHER AND/OR OBSTRUCTIONS TO VISIBILITY. NOT ALL STATIONS ARE QUALITY CONTROLLED BY THE NATIONAL WEATHER SERVICE. USE DATA WITH CAUTION...ESPECIALLY DEWPOINT OBSERVATIONS. SCZ027-030-031-034>040-042>050-211600- ...SOUTH CAROLINA... CITY SKY/WX TMP DP RH WIND PRES REMARKS N CHARLESTON MOSUNNY 79 63 57 NW7 29.99R WATERFRONT PRK N/A 77 N/A N/A NW7G13 N/A FORT JOHNSON NOT AVBL MOUNT PLEASANT FAIR 79 64 61 NW8 29.98S JOHNS ISLAND SUNNY 81 73 78 NW9 29.99S PINOPOLIS N/A 75 64 69 NW8 29.89F MONCKS CORNER N/A 77 66 69 CALM 29.98S SUMMERVILLE FAIR 79 63 57 W7 30.00S BEAUFORT MCAS SUNNY 79 62 56 S8 30.01R BEAUFORT ARPT FAIR 79 63 57 NW6 30.01R HAZE HILTON HEAD IS SUNNY 82 64 54 CALM 30.02S GEORGETOWN NOT AVBL WALTERBORO SUNNY 81 55 41 W9 30.01S ORANGEBURG SUNNY 78 60 53 NW8 30.00R BARNWELL FAIR 81 63 54 W6 30.01F AIKEN FAIR 79 64 61 W10 30.05S MANNING FAIR 79 59 50 NW5 29.98S KINGSTREE NOT AVBL COLUMBIA MOSUNNY 80 60 50 W7 29.98S SUMTER SUNNY 78 62 57 NW8 29.96S FLORENCE MOSUNNY 78 61 55 NW6 29.95S MYRTLE BEACH SUNNY 75 64 69 NW12 29.94R N MYRTLE BEACH MOSUNNY 76 65 68 NW8 29.92R $$ GAZ063-065-086>088-099>101-113>116-118-119-134-136>141-150-211600- ...GEORGIA... CITY SKY/WX TMP DP RH WIND PRES REMARKS SAVANNAH ARPT MOSUNNY 79 61 53 NW9 30.02S HUNTER AAF SUNNY 78 63 59 NW8 30.01R FORT STEWART SUNNY 80 61 53 W8 30.02R STATESBORO NOT AVBL SYLVANIA SUNNY 82 67 60 NW7 30.04S CLAXTON FAIR 81 68 65 NW7 30.04S THOMSON SUNNY 81 70 69 W9 30.08S AUGUSTA-BUSH SUNNY 80 63 55 W5 30.02R AUGUSTA-DANIEL SUNNY 79 61 53 VRB6 30.03R SWAINSBORO FAIR 81 66 61 W6 30.05F VIDALIA SUNNY 81 63 54 W7 30.05S ALMA SUNNY 80 60 50 CALM 30.05R WAYCROSS NOT AVBL JESUP FAIR 82 64 54 NW6 30.04S BRUNSWICK SUNNY 79 63 57 CALM 30.03F SAINT SIMONS SUNNY 77 63 61 VRB6 30.03S $$ SCZ027-028-034-036>038-045-046-048>050-GAZ119-141-211600- ...LAKE AND SUPPLEMENTAL COASTAL OBSERVATIONS... STATION/POSITION TIME TEMP WIND PRES WAVE SWELL AIR SEA DIR/SP/G HT/PER HT/PER/DIR (UTC) (F) (DEG/KT/KT) (MB) (FT/S) (FT/S/D) UPR LAKE MARION NOT AVBL WINYAH BAY 1500 75 320/ 9 1014.0S LAKE MURRAY 1400 74 270/ 4/ 6 1014.9S ACE BASIN NERRS 1500 77 330/ 2 1016.0S FORT PULASKI 1500 76 320/ 10/ 12 1016.6S SAPELO ISLAND 1500 78 300/ 4 1017.0S $$ ANZ835-935-AMZ111-154-330-350-352-354-374-450-454-472-211600- ...C-MAN AND BUOY OBSERVATIONS... STATION/POSITION TIME TEMP WIND PRES WAVE SWELL AIR SEA DIR/SP/G HT/PER HT/PER/DIR (UTC) (F) (DEG/KT/KT) (MB) (FT/S) (FT/S/D) FOLLY BEACH CMAN 1500 78 330/ 5/ 7 1015.7R BUOY 41004 1500 75 81 320/ 16/ 17 1013.8R 6/ 7 2/ 9 BUOY 41008 1500 76 83 330/ 8/ 10 1016.7R 3/ 6 3/ 70/ 6 5E ST. MARYS GA 1500 83 N/A 3/ 6 FRYING PAN BUOY NOT AVBL BUOY 41025 1500 75 330/ 27/ 31 1005.2F 9/ 8 7/130/ 8 CAPE LOOKOUT NC 1500 74 320/ 15/ 18 1009.0R BUOY 41002 1447 81 82 260/ 23/ 29 1010.2R 11/ 8 BUOY 41010 1500 81 85 290/ 4/ 6 1016.0R 4/ 9 3/350/ 9 BUOY 41012 NOT AVBL ST AUGUSTINE FL 1500 76 360/ 7/ 8 1017.8R CAPERS NEARSHORE 1400 73 330/ 12/ 16 N/A FRIPP NEARSHORE NOT AVBL $$

USA.gov is the U.S. government's official web portal to all federal, state and local government web resources and services.